Location: Gudip?du
(17.0263°N, 80.8301°E)
Time: 16:11:48
(UTC+00:00)

Meteor 1-24 Rocket - Pass Details

Date: 03 August 2024
Orbit: 790 x 925 km, 81.3° (Epoch: 12 September)

Event Time Altitude Azimuth Distance (km) Brightness Sun altitude
Rises 23:05:49 0° 351° (N) 3,504 7.1 -16.8°
Reaches altitude 10° 23:08:15 10° 349° (N) 2,579 6.4 -16.3°
Maximum altitude 23:14:09 74° 265° (W) 954 3.8 -15.0°
Drops below altitude 10° 23:20:08 10° 181° (S) 2,617 6.0 -13.7°
Sets 23:22:37 0° 179° (S) 3,559 6.7 -13.1°
